VA3DLF Weather Reports


Display with metric or nautical units.
time (UTC)temp
F
wind
direction
speed
MPH
gust
MPH
rain 1hr
in
rain 24hr
in
rain mn
in
humidity
%
barometer
mb
20210119122204 16 246 3.0 2.0 0.00 0.00 0.00
20210119121707 16 246 4.0 4.0 0.00 0.00 0.00
20210119121201 16 255 2.0 4.0 0.00 0.00 0.00
20210119120710 16 273 3.0 2.0 0.00 0.00 0.00
20210119115702 16 256 2.0 2.0 0.00 0.00 0.00
20210119115204 16 210 3.0 4.0 0.00 0.00 0.00
20210119114701 16 269 2.0 2.0 0.00 0.00 0.00
20210119114158 15 246 3.0 2.0 0.00 0.00 0.00
20210119113700 15 288 3.0 6.0 0.00 0.00 0.00
20210119113157 15 239 1.0 3.0 0.00 0.00 0.00
20210119112655 15 269 4.0 2.0 0.00 0.00 0.00
20210119111653 15 255 3.0 5.0 0.00 0.00 0.00
20210119111150 15 240 2.0 3.0 0.00 0.00 0.00
20210119110653 15 274 2.0 2.0 0.00 0.00 0.00
20210119105148 15 260 3.0 3.0 0.00 0.00 0.00
20210119104649 15 283 2.0 2.0 0.00 0.00 0.00
20210119104147 15 283 2.0 2.0 0.00 0.00 0.00
20210119103646 15 298 2.0 1.0 0.00 0.00 0.00
20210119102641 15 274 1.0 2.0 0.00 0.00 0.00
20210119102145 15 221 1.0 2.0 0.00 0.00 0.00
20210119101643 15 260 2.0 2.0 0.00 0.00 0.00
20210119100638 15 239 3.0 2.0 0.00 0.00 0.00
20210119094131 15 252 2.0 3.0 0.00 0.00 0.00
20210119093636 15 231 3.0 2.0 0.00 0.00 0.00
20210119092629 15 217 1.0 0.0 0.00 0.00 0.00
20210119091628 15 172 0.0 0.0 0.00 0.00 0.00
20210119091125 15 203 2.0 2.0 0.00 0.00 0.00
20210119090626 15 260 2.0 2.0 0.00 0.00 0.00
20210119085124 15 231 1.0 3.0 0.00 0.00 0.00
20210119084648 14 257 2.0 3.0 0.00 0.00 0.00
20210119084125 14 246 2.0 1.0 0.00 0.00 0.00
20210119083622 14 221 2.0 3.0 0.00 0.00 0.00
20210119083122 13 200 2.0 2.0 0.00 0.00 0.00
20210119082619 13 186 2.0 2.0 0.00 0.00 0.00
20210119082123 13 129 0.0 0.0 0.00 0.00 0.00
20210119081620 13 221 1.0 1.0 0.00 0.00 0.00
20210119081119 13 208 0.0 0.0 0.00 0.00 0.00
20210119080619 14 210 0.0 0.0 0.00 0.00 0.00
20210119080119 13 210 0.0 0.0 0.00 0.00 0.00
20210119075618 14 212 1.0 1.0 0.00 0.00 0.00
20210119075124 14 217 2.0 1.0 0.00 0.00 0.00
20210119074630 14 225 2.0 2.0 0.00 0.00 0.00
20210119074112 13 211 2.0 1.0 0.00 0.00 0.00
20210119073617 13 205 3.0 2.0 0.00 0.00 0.00
20210119073116 13 173 2.0 2.0 0.00 0.00 0.00
20210119072617 13 177 2.0 3.0 0.00 0.00 0.00
20210119072110 13 177 2.0 2.0 0.00 0.00 0.00
20210119071611 13 186 1.0 1.0 0.00 0.00 0.00
20210119071128 13 190 1.0 1.0 0.00 0.00 0.00
20210119070609 13 214 1.0 1.0 0.00 0.00 0.00
20210119070109 14 215 1.0 0.0 0.00 0.00 0.00
20210119065109 14 229 1.0 1.0 0.00 0.00 0.00
20210119064608 14 198 1.0 1.0 0.00 0.00 0.00
20210119063605 14 226 0.0 0.0 0.00 0.00 0.00
20210119062603 14 179 1.0 1.0 0.00 0.00 0.00
20210119062104 13 235 1.0 1.0 0.00 0.00 0.00
20210119061607 13 221 1.0 1.0 0.00 0.00 0.00
20210119061059 13 210 0.0 1.0 0.00 0.00 0.00
20210119060558 12 129 0.0 0.0 0.00 0.00 0.00
20210119060104 13 129 0.0 0.0 0.00 0.00 0.00
20210119055556 13 129 0.0 0.0 0.00 0.00 0.00
20210119055056 12 129 1.0 0.0 0.00 0.00 0.00
20210119054558 12 217 0.0 0.0 0.00 0.00 0.00
20210119053058 13 217 0.0 0.0 0.00 0.00 0.00
20210119052050 13 217 0.0 0.0 0.00 0.00 0.00
20210119051551 13 217 0.0 0.0 0.00 0.00 0.00
20210119051048 13 217 0.0 0.0 0.00 0.00 0.00
20210119050050 14 217 1.0 0.0 0.00 0.00 0.00
20210119045549 13 191 0.0 0.0 0.00 0.00 0.00
20210119045050 14 172 0.0 0.0 0.00 0.00 0.00
20210119044548 14 170 1.0 0.0 0.00 0.00 0.00
20210119044046 14 172 1.0 1.0 0.00 0.00 0.00
20210119043546 15 183 2.0 2.0 0.00 0.00 0.00
20210119043049 15 179 1.0 2.0 0.00 0.00 0.00
20210119042543 15 176 1.0 2.0 0.00 0.00 0.00
20210119042044 15 218 1.0 1.0 0.00 0.00 0.00
20210119041042 15 204 0.0 0.0 0.00 0.00 0.00
20210119035539 15 191 0.0 2.0 0.00 0.00 0.00
20210119034543 15 211 0.0 0.0 0.00 0.00 0.00
20210119031540 14 211 0.0 0.0 0.00 0.00 0.00
20210119031032 14 211 0.0 0.0 0.00 0.00 0.00
20210119025531 14 211 0.0 0.0 0.00 0.00 0.00
20210119025038 14 211 0.0 0.0 0.00 0.00 0.00
20210119024532 15 211 0.0 0.0 0.00 0.00 0.00
20210119024028 15 211 0.0 0.0 0.00 0.00 0.00
20210119023539 16 211 1.0 1.0 0.00 0.00 0.00
20210119022035 16 210 4.0 3.0 0.00 0.00 0.00
20210119020526 17 180 4.0 3.0 0.00 0.00 0.00
20210119020027 17 197 4.0 4.0 0.00 0.00 0.00
20210119015024 17 177 3.0 2.0 0.00 0.00 0.00
20210119014531 15 195 5.0 7.0 0.00 0.00 0.00
20210119013028 16 180 2.0 2.0 0.00 0.00 0.00
20210119012028 15 195 2.0 2.0 0.00 0.00 0.00
20210119011020 15 113 0.0 0.0 0.00 0.00 0.00
20210119010520 15 113 0.0 0.0 0.00 0.00 0.00
20210119010025 16 113 0.0 0.0 0.00 0.00 0.00
20210119005022 15 113 0.0 0.0 0.00 0.00 0.00
20210119004527 16 113 0.0 0.0 0.00 0.00 0.00
20210119004030 17 113 0.0 0.0 0.00 0.00 0.00
20210119001017 17 113 0.0 0.0 0.00 0.00 0.00
20210119000515 17 113 0.0 0.0 0.00 0.00 0.00
20210119000019 17 113 0.0 0.0 0.00 0.00 0.00
20210118235001 17 113 0.0 0.0 0.00 0.00 0.00
20210118234507 17 113 0.0 0.0 0.00 0.00 0.00
20210118234010 17 113 0.0 0.0 0.00 0.00 0.00
20210118233014 17 113 0.0 0.0 0.00 0.00 0.00
20210118231958 18 113 0.0 0.0 0.00 0.00 0.00
20210118231504 18 113 0.0 0.0 0.00 0.00 0.00
20210118230956 18 113 0.0 0.0 0.00 0.00 0.00
20210118225956 18 113 0.0 0.0 0.00 0.00 0.00
20210118225453 19 113 0.0 0.0 0.00 0.00 0.00
20210118224955 19 113 0.0 0.0 0.00 0.00 0.00
20210118224455 18 113 0.0 0.0 0.00 0.00 0.00
20210118224006 19 113 0.0 0.0 0.00 0.00 0.00
20210118223453 19 113 0.0 0.0 0.00 0.00 0.00
20210118222955 19 113 0.0 0.0 0.00 0.00 0.00
20210118221456 20 159 1.0 1.0 0.00 0.00 0.00
20210118221010 20 176 2.0 2.0 0.00 0.00 0.00
20210118215449 22 152 1.0 3.0 0.00 0.00 0.00
20210118214949 23 179 2.0 2.0 0.00 0.00 0.00
20210118212948 24 76 0.0 0.0 0.00 0.00 0.00
20210118205445 26 76 0.0 0.0 0.00 0.00 0.00
20210118204945 26 31 5.0 2.0 0.00 0.00 0.00
20210118203943 26 69 8.0 10.0 0.00 0.00 0.00
20210118202440 26 132 6.0 4.0 0.00 0.00 0.00
20210118201941 26 66 5.0 8.0 0.00 0.00 0.00
20210118201440 26 93 4.0 5.0 0.00 0.00 0.00
20210118200938 26 79 3.0 5.0 0.00 0.00 0.00
20210118195939 26 46 0.0 0.0 0.00 0.00 0.00
20210118195444 26 46 0.0 0.0 0.00 0.00 0.00
20210118194438 26 46 0.0 0.0 0.00 0.00 0.00
20210118192936 25 46 0.0 0.0 0.00 0.00 0.00
20210118192434 24 46 0.0 0.0 0.00 0.00 0.00
20210118191934 25 46 0.0 0.0 0.00 0.00 0.00
20210118191434 25 46 0.0 0.0 0.00 0.00 0.00
20210118190933 25 46 0.0 0.0 0.00 0.00 0.00
20210118190434 26 46 0.0 0.0 0.00 0.00 0.00
20210118185933 25 46 0.0 0.0 0.00 0.00 0.00
20210118185433 25 46 0.0 0.0 0.00 0.00 0.00
20210118184933 25 46 0.0 0.0 0.00 0.00 0.00
20210118184434 26 46 0.0 0.0 0.00 0.00 0.00
20210118183930 25 46 0.0 0.0 0.00 0.00 0.00
20210118183432 25 46 0.0 0.0 0.00 0.00 0.00
20210118182931 25 46 0.0 0.0 0.00 0.00 0.00
20210118182428 25 46 0.0 0.0 0.00 0.00 0.00
20210118181934 25 82 9.0 7.0 0.00 0.00 0.00
20210118181430 25 80 0.0 0.0 0.00 0.00 0.00
20210118180927 25 80 0.0 0.0 0.00 0.00 0.00
20210118180428 24 80 0.0 0.0 0.00 0.00 0.00
20210118175934 24 80 0.0 0.0 0.00 0.00 0.00
20210118175428 24 80 0.0 0.0 0.00 0.00 0.00
20210118174931 24 80 0.0 0.0 0.00 0.00 0.00
20210118174427 24 89 0.0 9.0 0.00 0.00 0.00
20210118173925 24 359 7.0 0.0 0.00 0.00 0.00
20210118172930 24 359 0.0 0.0 0.00 0.00 0.00
20210118172424 24 359 0.0 0.0 0.00 0.00 0.00
20210118171924 24 113 0.0 0.0 0.00 0.00 0.00
20210118171427 24 51 6.0 8.0 0.00 0.00 0.00
20210118170425 23 141 6.0 0.0 0.00 0.00 0.00
20210118165923 23 103 7.0 7.0 0.00 0.00 0.00
20210118164925 23 69 6.0 8.0 0.00 0.00 0.00
20210118164422 22 132 0.0 0.0 0.00 0.00 0.00
20210118163921 23 132 0.0 0.0 0.00 0.00 0.00
20210118163425 22 132 0.0 0.0 0.00 0.00 0.00
20210118162921 22 132 0.0 0.0 0.00 0.00 0.00
20210118161919 22 359 3.0 0.0 0.00 0.00 0.00
20210118161419 22 146 0.0 0.0 0.00 0.00 0.00
20210118160917 22 153 7.0 8.0 0.00 0.00 0.00
20210118160417 22 143 5.0 0.0 0.00 0.00 0.00
20210118155918 22 359 0.0 0.0 0.00 0.00 0.00
20210118154917 22 172 0.0 0.0 0.00 0.00 0.00
20210118154426 22 136 6.0 6.0 0.00 0.00 0.00
20210118153914 22 139 0.0 0.0 0.00 0.00 0.00
20210118153415 22 139 0.0 0.0 0.00 0.00 0.00
20210118152916 22 139 4.0 0.0 0.00 0.00 0.00
20210118152415 22 146 9.0 6.0 0.00 0.00 0.00
20210118151916 22 359 0.0 0.0 0.00 0.00 0.00
20210118150913 21 138 0.0 0.0 0.00 0.00 0.00
20210118150413 22 138 0.0 0.0 0.00 0.00 0.00
20210118145915 22 197 3.0 6.0 0.00 0.00 0.00
20210118145413 22 359 0.0 0.0 0.00 0.00 0.00
20210118144921 22 359 0.0 0.0 0.00 0.00 0.00
20210118144420 21 359 0.0 0.0 0.00 0.00 0.00
20210118143918 21 359 3.0 1.0 0.00 0.00 0.00
20210118143411 21 131 4.0 10.0 0.00 0.00 0.00
20210118142910 21 359 0.0 0.0 0.00 0.00 0.00
20210118142410 21 359 0.0 0.0 0.00 0.00 0.00
20210118141908 21 359 1.0 0.0 0.00 0.00 0.00
20210118141410 20 359 0.0 0.0 0.00 0.00 0.00
20210118140906 20 359 0.0 0.0 0.00 0.00 0.00
20210118140410 21 359 0.0 0.0 0.00 0.00 0.00
20210118135908 21 359 0.0 0.0 0.00 0.00 0.00
20210118134905 21 359 0.0 0.0 0.00 0.00 0.00
20210118134406 21 359 2.0 0.0 0.00 0.00 0.00
20210118133903 21 359 0.0 9.0 0.00 0.00 0.00
20210118133404 21 359 0.0 0.0 0.00 0.00 0.00
20210118132907 21 158 0.0 0.0 0.00 0.00 0.00
20210118131901 21 169 7.0 7.0 0.00 0.00 0.00
20210118131420 21 172 6.0 8.0 0.00 0.00 0.00
20210118130903 21 156 0.0 0.0 0.00 0.00 0.00
20210118125900 21 359 0.0 0.0 0.00 0.00 0.00
20210118124859 21 359 0.0 0.0 0.00 0.00 0.00
20210118123857 21 141 0.0 0.0 0.00 0.00 0.00
20210118123358 21 148 7.0 9.0 0.00 0.00 0.00